When you browse on this site, cookies collect data to enhance your experience and personalize the content and advertising you see.
Visit our Privacy Policy to learn more. By continuing to use the site, you agree to this use of cookies and data.

Previsão horária em Salzburgo

Hoje, 18 Setembro, Sexta-feira

Tempo Temperatura Precipitação Vento Pressão Humidade
00:00 +8°C° 0 mm 1 m/s 631 mmHg 96%
01:00 +8°C° 0 mm 1 m/s 631 mmHg 96%
02:00 +8°C° 0 mm 1 m/s 631 mmHg 96%
03:00 +7°C° 0 mm 1 m/s 631 mmHg 96%
04:00 +7°C° 0 mm 1 m/s 630 mmHg 96%
05:00 +7°C° 0 mm 1 m/s 631 mmHg 95%
06:00 +8°C° 0 mm 1 m/s 631 mmHg 94%
07:00 +8°C° 0 mm 1 m/s 631 mmHg 94%
08:00 +11°C° 0 mm 1 m/s 632 mmHg 86%
09:00 +13°C° 0 mm 1 m/s 633 mmHg 78%
10:00 +15°C° 0 mm 1 m/s 634 mmHg 70%
11:00 +16°C° 0 mm 1 m/s 634 mmHg 64%
12:00 +18°C° 0 mm 1 m/s 634 mmHg 58%
13:00 +19°C° 0 mm 1 m/s 634 mmHg 53%
14:00 +19°C° 0 mm 1 m/s 634 mmHg 57%
15:00 +18°C° 0 mm 1 m/s 633 mmHg 60%
16:00 +18°C° 0 mm 1 m/s 633 mmHg 64%
17:00 +14°C° 0 mm 1 m/s 632 mmHg 74%
18:00 +12°C° 0 mm 1 m/s 632 mmHg 83%
19:00 +9°C° 0 mm 1 m/s 631 mmHg 93%
20:00 +9°C° 0 mm 1 m/s 631 mmHg 93%
21:00 +9°C° 0 mm 1 m/s 631 mmHg 93%
22:00 +9°C° 0 mm 1 m/s 631 mmHg 93%
23:00 +9°C° 0 mm 1 m/s 631 mmHg 93%

Amanhã, 19 Setembro, Sábado

Tempo Temperatura Precipitação Vento Pressão Humidade
00:00 +9°C° 0 mm 1 m/s 631 mmHg 93%
01:00 +8°C° 0 mm 2 m/s 631 mmHg 92%
02:00 +8°C° 0 mm 2 m/s 630 mmHg 92%
03:00 +7°C° 0 mm 2 m/s 630 mmHg 91%
04:00 +7°C° 0 mm 2 m/s 630 mmHg 91%
05:00 +9°C° 0 mm 1 m/s 630 mmHg 88%
06:00 +9°C° 0 mm 1 m/s 630 mmHg 86%
07:00 +10°C° 0 mm 1 m/s 630 mmHg 84%
08:00 +12°C° 0 mm 1 m/s 631 mmHg 75%
09:00 +15°C° 0 mm 1 m/s 632 mmHg 66%
10:00 +16°C° 0 mm 0 m/s 632 mmHg 57%
11:00 +19°C° 0 mm 1 m/s 632 mmHg 54%
12:00 +20°C° 0 mm 1 m/s 632 mmHg 51%
13:00 +21°C° 0 mm 1 m/s 632 mmHg 48%
14:00 +20°C° 0 mm 1 m/s 632 mmHg 52%
15:00 +20°C° 0 mm 1 m/s 631 mmHg 57%
16:00 +19°C° 0 mm 1 m/s 631 mmHg 61%
17:00 +16°C° 0 mm 1 m/s 630 mmHg 71%
18:00 +13°C° 0 mm 1 m/s 629 mmHg 80%
19:00 +11°C° 0 mm 1 m/s 628 mmHg 90%
20:00 +10°C° 0 mm 1 m/s 628 mmHg 90%
21:00 +10°C° 0 mm 1 m/s 628 mmHg 89%
22:00 +10°C° 0 mm 1 m/s 628 mmHg 89%
23:00 +9°C° 0 mm 1 m/s 628 mmHg 89%

Depois de amanhã, 20 Setembro, Domingo

Tempo Temperatura Precipitação Vento Pressão Humidade
00:00 +9°C° 0 mm 1 m/s 627 mmHg 89%
01:00 +9°C° 0 mm 1 m/s 627 mmHg 88%
02:00 +9°C° 0 mm 1 m/s 627 mmHg 88%
03:00 +9°C° 0 mm 1 m/s 627 mmHg 87%
04:00 +9°C° 0 mm 1 m/s 627 mmHg 87%
05:00 +9°C° 0 mm 1 m/s 627 mmHg 86%
06:00 +9°C° 0 mm 0 m/s 627 mmHg 86%
07:00 +9°C° 0 mm 0 m/s 628 mmHg 85%
08:00 +11°C° 0.1 mm 0 m/s 628 mmHg 79%
09:00 +14°C° 0.1 mm 1 m/s 629 mmHg 73%
10:00 +16°C° 0.1 mm 1 m/s 630 mmHg 67%
11:00 +18°C° 0.4 mm 1 m/s 629 mmHg 66%
12:00 +18°C° 0.4 mm 1 m/s 629 mmHg 66%
13:00 +18°C° 0.4 mm 1 m/s 629 mmHg 66%
14:00 +18°C° 0.6 mm 1 m/s 629 mmHg 70%
15:00 +16°C° 0.6 mm 1 m/s 628 mmHg 75%
16:00 +16°C° 0.6 mm 1 m/s 628 mmHg 80%
17:00 +14°C° 0.9 mm 1 m/s 628 mmHg 85%
18:00 +13°C° 0.9 mm 1 m/s 627 mmHg 90%
19:00 +11°C° 0.9 mm 1 m/s 627 mmHg 95%
20:00 +11°C° 0.2 mm 1 m/s 627 mmHg 94%
21:00 +10°C° 0.2 mm 1 m/s 627 mmHg 94%
22:00 +10°C° 0.2 mm 1 m/s 627 mmHg 94%
23:00 +10°C° 0.3 mm 1 m/s 627 mmHg 94%

21 Setembro, Segunda-feira

Tempo Temperatura Precipitação Vento Pressão Humidade
00:00 +9°C° 0.3 mm 1 m/s 627 mmHg 94%
01:00 +9°C° 0.3 mm 1 m/s 626 mmHg 95%
02:00 +9°C° 0.3 mm 1 m/s 626 mmHg 94%
03:00 +9°C° 0.3 mm 1 m/s 626 mmHg 94%
04:00 +8°C° 0.3 mm 1 m/s 626 mmHg 93%
05:00 +9°C° 0.2 mm 1 m/s 626 mmHg 93%
06:00 +9°C° 0.2 mm 1 m/s 627 mmHg 92%
07:00 +10°C° 0.2 mm 1 m/s 627 mmHg 91%
08:00 +11°C° 0.1 mm 0 m/s 627 mmHg 86%
09:00 +12°C° 0.1 mm 0 m/s 628 mmHg 80%
10:00 +14°C° 0.1 mm 0 m/s 629 mmHg 74%
11:00 +16°C° 0.8 mm 1 m/s 629 mmHg 74%
12:00 +16°C° 0.8 mm 1 m/s 629 mmHg 73%
13:00 +16°C° 0.8 mm 1 m/s 629 mmHg 73%
14:00 +16°C° 1.1 mm 1 m/s 628 mmHg 77%
15:00 +15°C° 1.1 mm 1 m/s 628 mmHg 82%
16:00 +14°C° 1.1 mm 1 m/s 628 mmHg 87%
17:00 +13°C° 0.7 mm 1 m/s 627 mmHg 88%
18:00 +12°C° 0.7 mm 1 m/s 627 mmHg 90%
19:00 +11°C° 0.7 mm 1 m/s 627 mmHg 92%
20:00 +10°C° 0.1 mm 1 m/s 627 mmHg 92%
21:00 +10°C° 0.1 mm 1 m/s 627 mmHg 92%
22:00 +9°C° 0.1 mm 1 m/s 627 mmHg 91%
23:00 +9°C° 0 mm 1 m/s 626 mmHg 91%

22 Setembro, Terça-feira

Tempo Temperatura Precipitação Vento Pressão Humidade
00:00 +9°C° 0 mm 1 m/s 626 mmHg 91%
01:00 +8°C° 0 mm 1 m/s 626 mmHg 91%
02:00 +8°C° 0 mm 1 m/s 626 mmHg 91%
03:00 +8°C° 0 mm 1 m/s 625 mmHg 91%
04:00 +8°C° 0 mm 1 m/s 625 mmHg 90%
05:00 +8°C° 0 mm 1 m/s 625 mmHg 90%
06:00 +8°C° 0 mm 1 m/s 626 mmHg 89%
07:00 +9°C° 0 mm 1 m/s 626 mmHg 89%
08:00 +11°C° 0 mm 1 m/s 627 mmHg 80%
09:00 +14°C° 0 mm 1 m/s 627 mmHg 71%
10:00 +16°C° 0 mm 0 m/s 628 mmHg 62%
11:00 +16°C° 0.4 mm 0 m/s 628 mmHg 63%
12:00 +18°C° 0.4 mm 1 m/s 628 mmHg 64%
13:00 +19°C° 0.4 mm 1 m/s 628 mmHg 65%
14:00 +18°C° 1.3 mm 1 m/s 627 mmHg 72%
15:00 +15°C° 1.3 mm 0 m/s 627 mmHg 78%
16:00 +14°C° 1.3 mm 0 m/s 626 mmHg 84%
17:00 +14°C° 0.8 mm 1 m/s 626 mmHg 86%
18:00 +12°C° 0.8 mm 1 m/s 625 mmHg 88%
19:00 +11°C° 0.8 mm 1 m/s 625 mmHg 89%
20:00 +10°C° 0.2 mm 1 m/s 625 mmHg 90%
21:00 +10°C° 0.2 mm 1 m/s 625 mmHg 91%
22:00 +9°C° 0.2 mm 2 m/s 625 mmHg 92%
23:00 +10°C° 0.2 mm 1 m/s 625 mmHg 92%

23 Setembro, Quarta-feira

Tempo Temperatura Precipitação Vento Pressão Humidade
00:00 +10°C° 0.2 mm 1 m/s 625 mmHg 92%
01:00 +9°C° 0.2 mm 1 m/s 625 mmHg 92%
02:00 +9°C° 0.2 mm 1 m/s 625 mmHg 93%
03:00 +9°C° 0.2 mm 1 m/s 625 mmHg 93%
04:00 +9°C° 0.2 mm 1 m/s 625 mmHg 93%
05:00 +9°C° 0.1 mm 1 m/s 625 mmHg 93%
06:00 +9°C° 0.1 mm 1 m/s 625 mmHg 93%
07:00 +10°C° 0.1 mm 1 m/s 625 mmHg 93%
08:00 +11°C° 0.2 mm 1 m/s 625 mmHg 87%
09:00 +13°C° 0.2 mm 1 m/s 626 mmHg 82%
10:00 +14°C° 0.2 mm 0 m/s 627 mmHg 77%
11:00 +13°C° 0.8 mm 0 m/s 626 mmHg 78%
12:00 +14°C° 0.8 mm 1 m/s 626 mmHg 79%
13:00 +14°C° 0.8 mm 1 m/s 626 mmHg 81%
14:00 +14°C° 0.9 mm 1 m/s 625 mmHg 84%
15:00 +12°C° 0.9 mm 0 m/s 625 mmHg 87%
16:00 +12°C° 0.9 mm 0 m/s 625 mmHg 91%
17:00 +11°C° 0.8 mm 0 m/s 625 mmHg 92%
18:00 +10°C° 0.8 mm 0 m/s 624 mmHg 94%
19:00 +9°C° 0.8 mm 0 m/s 624 mmHg 95%
20:00 +10°C° 0.3 mm 1 m/s 624 mmHg 95%
21:00 +10°C° 0.3 mm 1 m/s 624 mmHg 95%
22:00 +9°C° 0.3 mm 1 m/s 624 mmHg 95%
23:00 +9°C° 0 mm 1 m/s 624 mmHg 95%
Mostrar mais